Weather History for Flagstaff, AZ

Change the Weather History Date:

Saturday, March 8, 2014

  Actual Average Record
Temperature  
Mean Temperature 42 °F 36 °F  
Max Temperature 50 °F 49 °F 67 °F (1989)
Min Temperature 33 °F 23 °F -4 °F (1964)
Degree Days  
Heating Degree Days 23 29  
Month to date heating degree days 196 240  
Since 1 July heating degree days 4797 5079  
Cooling Degree Days 0 0  
Month to date cooling degree days 0 0  
Year to date cooling degree days 0 0  
Moisture  
Dew Point 18 °F    
Average Humidity 42    
Maximum Humidity 61    
Minimum Humidity 23    
Precipitation  
Precipitation 0.00 in 0.07 in 1.27 in (1918)
Month to date precipitation 1.13 0.61  
Year to date precipitation 1.73 4.82  
Snow  
Snow 0.00 in 0.70 in 13.80 in (1992)
Month to date snowfall 1.1 6.0  
Since 1 July snowfall 34.6 79.2  
Snow Depth 0.00 in    
Sea Level Pressure  
Sea Level Pressure 30.12 in    
Wind  
Wind Speed 17 mph (NE)    
Max Wind Speed 30 mph    
Max Gust Speed 38 mph    
Visibility 10 miles    
Events      
T = Trace of Precipitation, MM = Missing Value Source: NWS Daily Summary

Daily Weather History Graph

Daily Weather History Graph

Search for Another Location

Airport:

Trip Planner

Search our weather history database for the weather conditions in past years. The results will help you decide how hot, cold, wet, or windy it might be!

Date:

Astronomy

Mar. 08, 2014 Rise Set
Actual Time 6:46 AM MST 6:28 PM MST
Civil Twilight 6:21 AM MST 6:53 PM MST
Nautical Twilight 5:52 AM MST 7:23 PM MST
Astronomical Twilight 5:22 AM MST 7:52 PM MST
Moon 11:45 AM MST (3/8) 1:15 AM MST (3/8)
Length of Visible Light 12h 32m
Length of Day
11h 41m
First Quarter, 52% of the Moon is Illuminated
Mar 8
First Quarter
Mar 16
Full
Mar 23
Last Quarter
Mar 30
New
Apr 7
First Quarter

Hourly Weather History & Observations

Time (MST) Temp. Windchill Dew Point Humidity Pressure Visibility Wind Dir Wind Speed Gust Speed Precip Events Conditions
12:57 AM 37.0 °F 30.4 °F 19.9 °F 50% 29.95 in 10.0 mi ENE 9.2 mph - N/A   Clear
1:57 AM 35.1 °F 27.4 °F 21.9 °F 59% 29.98 in 10.0 mi ENE 10.4 mph - N/A   Clear
2:57 AM 34.0 °F 26.6 °F 21.0 °F 59% 29.99 in 10.0 mi ENE 9.2 mph - N/A   Clear
3:57 AM 35.1 °F 25.9 °F 19.9 °F 54% 30.00 in 10.0 mi NE 13.8 mph 25.3 mph N/A   Clear
4:57 AM 34.0 °F 23.4 °F 19.0 °F 54% 30.02 in 10.0 mi NE 17.3 mph 25.3 mph N/A   Clear
5:57 AM 33.1 °F 22.6 °F 19.0 °F 56% 30.04 in 10.0 mi NE 16.1 mph - N/A   Clear
6:57 AM 34.0 °F 22.1 °F 21.9 °F 61% 30.08 in 10.0 mi NE 21.9 mph 32.2 mph N/A   Clear
7:57 AM 35.1 °F 24.1 °F 21.0 °F 57% 30.11 in 10.0 mi NE 19.6 mph 27.6 mph N/A   Clear
8:57 AM 37.9 °F 27.1 °F 21.0 °F 51% 30.13 in 10.0 mi NE 23.0 mph 28.8 mph N/A   Clear
9:57 AM 41.0 °F 30.9 °F 21.0 °F 45% 30.17 in 10.0 mi NE 24.2 mph 32.2 mph N/A   Clear
10:57 AM 43.0 °F 34.2 °F 19.9 °F 40% 30.17 in 10.0 mi NE 20.7 mph 27.6 mph N/A   Clear
11:57 AM 45.0 °F 36.4 °F 18.0 °F 34% 30.14 in 10.0 mi NE 23.0 mph 35.7 mph N/A   Partly Cloudy
12:57 PM 46.0 °F 38.3 °F 16.0 °F 30% 30.13 in 10.0 mi NNE 20.7 mph 32.2 mph N/A   Clear
1:57 PM 48.9 °F - 14.0 °F 25% 30.12 in 10.0 mi NNE 20.7 mph 31.1 mph N/A   Clear
2:57 PM 48.0 °F - 14.0 °F 26% 30.13 in 10.0 mi ENE 19.6 mph 23.0 mph N/A   Clear
3:57 PM 48.0 °F - 12.9 °F 24% 30.12 in 10.0 mi ENE 17.3 mph 32.2 mph N/A   Clear
4:57 PM 46.9 °F - 12.9 °F 25% 30.14 in 10.0 mi NNE 19.6 mph 31.1 mph N/A   Clear
5:57 PM 45.0 °F 37.6 °F 16.0 °F 31% 30.17 in 10.0 mi NE 17.3 mph 27.6 mph N/A   Clear
6:57 PM 42.1 °F 35.2 °F 16.0 °F 35% 30.20 in 10.0 mi NE 12.7 mph - N/A   Clear
7:57 PM 39.9 °F 32.5 °F 16.0 °F 38% 30.22 in 10.0 mi ENE 12.7 mph - N/A   Clear
8:57 PM 39.0 °F 30.6 °F 15.1 °F 38% 30.24 in 10.0 mi NE 15.0 mph - N/A   Clear
9:57 PM 37.9 °F 29.2 °F 15.1 °F 39% 30.25 in 10.0 mi ENE 15.0 mph - N/A   Clear
10:57 PM 37.0 °F 28.5 °F 16.0 °F 42% 30.25 in 10.0 mi ENE 13.8 mph - N/A   Clear
11:57 PM 36.0 °F 32.1 °F 16.0 °F 44% 30.25 in 10.0 mi ENE 4.6 mph - N/A   Clear